Location: Unspecified
(41.1637°N, 24.2901°E)
Time: 16:04:55
(UTC+01:00)

ISS - Pass Details

Date: 05 March 2026
Orbit: 417 x 426 km, 51.6° (Epoch: 16 March)

Event Time Altitude Azimuth Distance (km) Brightness Sun altitude
Exits shadow 04:29:36 39° 244° (WSW) 635 -3.3 -16.2°
Maximum altitude 04:30:00 42° 222° (SW) 609 -3.3 -16.1°
Drops below altitude 10° 04:33:05 11° 151° (SSE) 1,445 -0.7 -15.5°
Sets 04:35:19 0° 143° (SE) 2,345 0.5 -15.1°
